Weather Roundup
Issued by NWS Chicago, IL

Home | Current Version | Previous Version | Graphics & Text | Print | Product List | Glossary On
Versions: 1 2 3 4 5 6 7 8 9 10 11 12 13 14 15 16 17 18 19 20 21 22 23 24 25 26 27 28 29 30 31 32 33 34 35 36 37 38 39 40 41 42 43 44 45 46 47 48 49 50
000
NZUS59 KLOT 230708
HRRLOT

CHICAGO AREA WEATHER ROUNDUP
NATIONAL WEATHER SERVICE CHICAGO/ROMEOVILLE IL
200 AM CDT SAT JUL 23 2016

NOTE: "FAIR" INDICATES FEW OR NO CLOUDS BELOW 12,000 FEET WITH NO
SIGNIFICANT WEATHER AND/OR OBSTRUCTIONS TO VISIBILITY.

* THESE STATIONS ARE NOT UNDER NWS QUALITY CONTROL. THEY ALSO MAY NOT
  REPORT WEATHER SUCH AS PRECIPITATION OR FOG.

ILZ005-006-012>014-019>023-230800-
NORTHEAST ILLINOIS

CITY           SKY/WX    TMP DP  RH WIND       PRES   REMARKS
OHARE          MOCLDY    81  76  84 W6        30.00R HX  87
MIDWAY         CLOUDY    82  75  79 SW5       29.99S HX  89
AURORA         CLOUDY    78  75  90 W5        30.01S HX  81
LANSING*       PTCLDY    75  73  91 S5        30.00F
JOLIET*        PTCLDY    78  77  96 CALM      30.00S HX  81
WAUKEGAN       PTCLDY    77  75  93 CALM      29.98F
DUPAGE AIRPORT MOCLDY    79  75  87 SW3       30.00S HX  83
WHEELING       PTCLDY    81  75  82 W3        30.00S HX  87
MORRIS*        MOCLDY    76  74  94 CALM      29.99S
LEWIS AIRPORT* CLOUDY    78  73  87 CALM      30.01S
NORTHERLY ISL    N/A     82  73  74 W7          N/A  HX  87
$$

WIZ051-052-058>065-066-070>072-230800-
SOUTHEAST WISCONSIN

CITY           SKY/WX    TMP DP  RH WIND       PRES   REMARKS
MILWAUKEE      PTCLDY    76  71  85 CALM      29.98S
KENOSHA*       CLEAR     76  74  93 SW3       29.99F
RACINE*        CLEAR     76  72  87 W5        30.00F
BURLINGTON     PTCLDY    73  73  98 CALM      29.99F FOG
WAUKESHA       CLEAR     72  72 100 CALM      30.00F
$$

INZ001>003-010>013-019-020-230800-
NORTHWEST INDIANA

CITY           SKY/WX    TMP DP  RH WIND       PRES   REMARKS
GARY*          CLEAR     80  80 100 CALM      30.00F HX  86
MICHIGAN CITY* NOT AVBL
RENSSELAER*    NOT AVBL
VALPARAISO     CLEAR     76  73  91 W5        30.01S
$$

LMZ740>746-230800-
SOUTHERN LAKE MICHIGAN

STATION/POSITION TIME  SKY/WX   TEMP WIND        PRES    VSBY
                                AIR  DIR/SP/G
                 (UTC)          (F)  (DEG/KT/KT) (MB)    (MI)
HARRISON CRIB    0600            85  260/  9/ 10   N/A
BURNHAM HARBOR   0700            82  260/  5/  8   N/A
CALUMET HARBOR   0600            80  210/  3/  5 1015.2R
BURNS HARBOR     0600            79  210/ 10/ 13 1015.9F
MICHIGAN CITY    0600            78  180/  9/ 10   N/A
$$

ABBREVIATIONS USED IN REMARKS
   TC - TEMPERATURE IN CELSIUS
  WCI - WIND CHILL INDEX
   HX - HEAT INDEX
  VSB - VISIBILITY
$$



USA.gov is the U.S. government's official web portal to all federal, state and local government web resources and services.